Weather History for KBML - September, 2013

Change the Weather History Date:

Saturday, September 7, 2013

  Actual Average Record
Temperature  
Mean Temperature 56 °F -  
Max Temperature 75 °F 71 °F 88 °F (2007)
Min Temperature 39 °F 43 °F 34 °F (2000)
Degree Days  
Heating Degree Days 9    
Growing Degree Days 6 (Base 50)    
Moisture  
Dew Point 44 °F    
Average Humidity 80    
Maximum Humidity 100    
Minimum Humidity 30    
Precipitation  
Precipitation 0.00 in - - ()
Sea Level Pressure  
Sea Level Pressure 29.98 in    
Wind  
Wind Speed 1 mph (South)    
Max Wind Speed 7 mph    
Max Gust Speed 21 mph    
Visibility 8 miles    
Events Fog , Rain    
Averages and records for this station are not official NWS values.
T = Trace of Precipitation, MM = Missing Value Source: NWS Daily Summary

Daily Weather History Graph

Daily Weather History Graph

Search for Another Location

Airport or City:

Trip Planner

Search our weather history database for the weather conditions in past years. The results will help you decide how hot, cold, wet, or windy it might be!

Date:

Astronomy

Sep. 07, 2013 Rise Set
Actual Time 6:14 AM EDT 7:09 PM EDT
Civil Twilight 5:44 AM EDT 7:39 PM EDT
Nautical Twilight 5:09 AM EDT 8:14 PM EDT
Astronomical Twilight 4:32 AM EDT 8:51 PM EDT
Moon 8:33 AM EDT (9/7) 7:57 PM EDT (9/7)
Length of Visible Light 13h 54m
Length of Day
12h 55m
Waxing Crescent, 5% of the Moon is Illuminated
Sep 7
Waxing Crescent
Sep 12
First Quarter
Sep 19
Full
Sep 26
Last Quarter
Oct 4
New

Hourly Weather History & Observations

Time (EDT) Temp. Dew Point Humidity Pressure Visibility Wind Dir Wind Speed Gust Speed Precip Events Conditions
12:52 AM 41.0 °F 39.0 °F 93% 30.06 in 10.0 mi Calm Calm - N/A   Clear
1:52 AM 41.0 °F 39.9 °F 96% 30.06 in 10.0 mi Calm Calm - N/A   Clear
2:21 AM 42.8 °F 41.0 °F 93% 30.04 in 10.0 mi Calm Calm - N/A   Partly Cloudy
2:52 AM 43.0 °F 41.0 °F 93% 30.04 in 10.0 mi Calm Calm - N/A   Overcast
3:52 AM 42.1 °F 39.9 °F 92% 30.05 in 10.0 mi Calm Calm - N/A   Partly Cloudy
4:52 AM 41.0 °F 39.0 °F 93% 30.06 in 10.0 mi Calm Calm - N/A   Clear
5:27 AM 39.2 °F 37.4 °F 93% 30.04 in 10.0 mi Calm Calm - N/A   Partly Cloudy
5:52 AM 39.9 °F 37.9 °F 93% 30.05 in 10.0 mi Calm Calm - N/A   Partly Cloudy
6:11 AM 39.2 °F 37.4 °F 93% 30.04 in 10.0 mi Calm Calm - N/A   Mostly Cloudy
6:26 AM 39.2 °F 37.4 °F 93% 30.03 in 1.5 mi Calm Calm - N/A   Overcast
6:29 AM 39.2 °F 37.4 °F 93% 30.03 in 0.8 mi Calm Calm - N/A   Mist
6:38 AM 39.2 °F 39.2 °F 100% 30.03 in 0.2 mi Calm Calm - N/A Fog Fog
6:43 AM 39.2 °F 39.2 °F 100% 30.03 in 1.0 mi Calm Calm - N/A   Mist
6:50 AM 41.0 °F 39.2 °F 93% 30.03 in 0.2 mi Calm Calm - N/A Fog Fog
6:52 AM 42.1 °F 41.0 °F 96% 30.05 in 0.2 mi Calm Calm - N/A Fog Fog
7:01 AM 41.0 °F 41.0 °F 100% 30.03 in 1.0 mi Calm Calm - N/A   Mist
7:03 AM 42.8 °F 41.0 °F 93% 30.02 in 2.0 mi Calm Calm - N/A   Mostly Cloudy
7:11 AM 42.8 °F 42.8 °F 100% 30.02 in 10.0 mi Calm Calm - N/A   Mostly Cloudy
7:19 AM 44.6 °F 42.8 °F 93% 30.02 in 10.0 mi Calm Calm - N/A   Scattered Clouds
7:52 AM 46.0 °F 44.1 °F 93% 30.04 in 10.0 mi Calm Calm - N/A   Partly Cloudy
8:52 AM 50.0 °F 46.9 °F 89% 30.03 in 10.0 mi Calm Calm - N/A   Clear
9:52 AM 55.0 °F 46.9 °F 74% 30.00 in 10.0 mi Calm Calm - N/A   Clear
10:52 AM 60.1 °F 46.9 °F 62% 29.99 in 10.0 mi Calm Calm - N/A   Clear
11:52 AM 68.0 °F 48.0 °F 49% 29.95 in 10.0 mi SSE 3.5 mph - N/A   Clear
12:52 PM 73.9 °F 41.0 °F 30% 29.92 in 10.0 mi Variable 3.5 mph - N/A   Partly Cloudy
1:52 PM 73.0 °F 42.1 °F 33% 29.91 in 10.0 mi SSW 5.8 mph - N/A   Partly Cloudy
2:52 PM 72.0 °F 42.1 °F 34% 29.90 in 10.0 mi Variable 4.6 mph - N/A   Mostly Cloudy
3:52 PM 70.0 °F 46.9 °F 44% 29.89 in 10.0 mi NNE 3.5 mph - N/A   Mostly Cloudy
4:52 PM 68.0 °F 48.9 °F 50% 29.89 in 10.0 mi Calm Calm - N/A   Overcast
5:52 PM 66.0 °F 52.0 °F 60% 29.87 in 10.0 mi SSW 4.6 mph - N/A   Clear
6:52 PM 64.9 °F 50.0 °F 58% 29.87 in 10.0 mi Calm Calm - N/A   Overcast
7:52 PM 63.0 °F 50.0 °F 63% 29.88 in 10.0 mi Variable 6.9 mph 20.7 mph 0.00 in Rain Light Rain
8:52 PM 60.1 °F 52.0 °F 75% 29.87 in 10.0 mi Calm Calm - 0.00 in   Overcast
9:52 PM 57.9 °F 54.0 °F 87% 29.85 in 10.0 mi Calm Calm - N/A   Overcast
10:52 PM 59.0 °F 53.1 °F 81% 29.83 in 10.0 mi Calm Calm - N/A   Mostly Cloudy
11:52 PM 57.9 °F 54.0 °F 87% 29.82 in 10.0 mi Calm Calm - N/A   Overcast